Portada
METAR-TAF:

METAR-TAF

Aeroports :

Abumusa, Iran

latitud: 25-52-33N, longitud: 055-02-01E, altitud: 7 m

Observació

L'informe es va fer fa 6 hores i 48 minuts, a les 15:00 UTC
Vent 10 kt del Oest/Sud-Oest
Temperatura 30°C
Humitat 62%
Pressió 1009 hPa
Visibilitat: 7000 m

METAR: OIBA 241500Z 25010KT 7000 NSC 30/22 Q1009

Hora: 01:18 (21:48 UTC)


TAF: manca

Observacions i pronòstics meteorològics de més de 4000 aeroports (METAR i TAF).

Les estacions disponibles són els punts grocs i vermells al mapa.

Posi el ratolí al punt desitjat per veure el nom de l'estació.

Feu clic per veure les observacions i els pronòstics meteorològics.

Per canviar el mapa: feu clic els botons verds amb una creu de color negre per apropar; al botó verd amb un guió per allunyar la imatge; o en les fletxes verdes per a mapes adjacents.


METAR-TAF: